Stations météo

Publicité
Lulea/Kallax, Suède (2186): Température de l'air & dewpoint: 13.11.2017 20:00:00 - 19.11.2017 20:00:00 (CET)Lulea/Kallax, Suède (2186): Vitesse du vent & gusts: 13.11.2017 20:00:00 - 19.11.2017 20:00:00 (CET)Lulea/Kallax, Suède (2186): Direction du vent: 13.11.2017 20:00:00 - 19.11.2017 20:00:00 (CET)Lulea/Kallax, Suède (2186): reduced air pressure: 13.11.2017 20:00:00 - 19.11.2017 20:00:00 (CET)Lulea/Kallax, Suède (2186): visibility: 13.11.2017 20:00:00 - 19.11.2017 20:00:00 (CET)Lulea/Kallax, Suède (2186): Quantités de précipitations: 13.11.2017 20:00:00 - 19.11.2017 20:00:00 (CET)
Date & Time tt [°C] td [°C] ff [km/h] ff [knt] fx [km/h] fx [knt] dd ppp [hPa] vv [km] rr [mm]
19.11.2017 20:00:00 -7,0 -8,5 15 8 29 16 N 1007,0 10 0,0
19.11.2017 19:00:00 -7,2 -8,7 15 8 25 14 N 1006,8 10 0,0
19.11.2017 18:00:00 -7,3 -8,9 15 8 32 18 N 1006,7 10 0,0
19.11.2017 17:00:00 -7,2 -8,7 15 8 29 16 N 1006,6 10 0,0
19.11.2017 16:00:00 -6,9 -8,3 15 8 25 14 N 1006,3 10 0,0
19.11.2017 15:00:00 -6,7 -8,1 13 7 29 16 N 1006,2 10 0,0
19.11.2017 14:00:00 -6,5 -8,0 18 10 29 16 N 1005,8 10 0,0
19.11.2017 13:00:00 -6,6 -8,1 11 6 22 12 N 1005,8 10 0,0
19.11.2017 12:00:00 -6,7 -8,2 11 6 22 12 N 1005,6 10 0,0
19.11.2017 11:00:00 -7,0 -8,4 13 7 22 12 N 1005,1 10 0,0
19.11.2017 10:00:00 -7,0 -8,4 13 7 22 12 N 1004,9 10 0,0
19.11.2017 09:00:00 -6,9 -8,3 13 7 25 14 NNE 1004,4 10 0,0
19.11.2017 08:00:00 -7,0 -8,4 13 7 22 12 N 1003,9 10 0,0
19.11.2017 07:00:00 -6,6 -8,0 9 5 18 10 N 1003,4 10 0,0
19.11.2017 06:00:00 -6,4 -7,8 11 6 22 12 N 1003,0 10 0,0
19.11.2017 05:00:00 -6,4 -7,8 13 7 25 14 N 1002,5 10 0,0
19.11.2017 04:00:00 -6,5 -7,9 13 7 22 12 N 1002,2 10 0,0
19.11.2017 03:00:00 -6,8 -8,2 11 6 25 14 N 1002,1 10 0,0
19.11.2017 02:00:00 -7,1 -8,5 11 6 25 14 N 1001,7 10 0,0
19.11.2017 01:00:00 -7,6 -9,0 13 7 22 12 N 1001,4 10 0,0
19.11.2017 00:00:00 -8,0 -9,3 13 7 25 14 N 1001,2 10 0,0
18.11.2017 23:00:00 -7,9 -9,1 13 7 22 12 N 1000,9 8 0,0
18.11.2017 22:00:00 -7,4 -8,6 11 6 22 12 N 1000,7 4,5 0,0
18.11.2017 21:00:00 -7,2 -8,3 11 6 22 12 N 1000,3 3,6 0,2
18.11.2017 20:00:00 -7,3 -8,5 11 6 22 12 N 999,7 10 0,0
18.11.2017 19:00:00 -7,3 -8,4 11 6 22 12 N 999,2 8 0,0
18.11.2017 18:00:00 -7,2 -8,1 13 7 22 12 N 998,7 6 0,0
18.11.2017 17:00:00 -6,8 -7,9 11 6 22 12 NNW 998,6 9 0,0
18.11.2017 16:00:00 -6,6 -7,7 9 5 18 10 NNW 998,6 4,3 0,0
18.11.2017 15:00:00 -6,4 -7,3 11 6 18 10 NNW 998,1 6 0,0
18.11.2017 14:00:00 -6,3 -7,4 9 5 22 12 NNW 997,6 5 0,0
18.11.2017 13:00:00 -6,3 -7,4 13 7 22 12 NNW 997,2 3,8 0,0
18.11.2017 12:00:00 -6,2 -7,3 11 6 22 12 NNW 996,9 4,4 0,0
18.11.2017 11:00:00 -6,2 -7,3 15 8 25 14 NNW 996,5 5 0,1
18.11.2017 10:00:00 -6,1 -7,2 15 8 22 12 NNW 996,1 5 0,2
18.11.2017 09:00:00 -6,1 -7,2 13 7 22 12 NNW 995,5 5 0,1
18.11.2017 08:00:00 -6,1 -7,0 13 7 22 12 NNW 994,9 3,4 0,1
18.11.2017 07:00:00 -5,9 -6,8 15 8 22 12 NNW 994,4 4,6 0,1
18.11.2017 06:00:00 -5,7 -6,6 15 8 25 14 NNW 993,7 4,5 0,1
18.11.2017 05:00:00 -5,5 -6,5 16 9 25 14 NNW 993,3 7 0,0
18.11.2017 04:00:00 -5,2 -6,2 16 9 25 14 NNW 993,0 3,6 0,0
18.11.2017 03:00:00 -5,0 -5,8 18 10 25 14 NNW 992,6 2,8 0,0
18.11.2017 02:00:00 -4,9 -5,7 18 10 25 14 NNW 992,2 5 0,0
18.11.2017 01:00:00 -4,7 -5,5 18 10 29 16 NNW 991,9 5 0,0
18.11.2017 00:00:00 -4,7 -5,2 18 10 29 16 NNW 991,4 3,4 0,2
17.11.2017 23:00:00 -4,5 -5,2 21 11 29 16 NW 991,2 2,2 0,1
17.11.2017 22:00:00 -4,3 -5,0 18 10 29 16 NW 990,8 2,6 0,2
17.11.2017 21:00:00 -4,1 -4,6 21 11 29 16 NW 990,4 2,1 0,2
17.11.2017 20:00:00 -3,8 -4,3 21 11 29 16 NNW 990,0 3,1 0,2
17.11.2017 19:00:00 -3,2 -3,6 18 10 25 14 NNW 989,7 1,3 0,3
17.11.2017 18:00:00 -2,4 -2,7 16 9 25 14 NNW 989,7 4,2 0,0
17.11.2017 17:00:00 -1,1 -1,4 13 7 22 12 NNW 989,6 2,3 0,4
17.11.2017 16:00:00 -0,1 -0,2 9 5 18 10 N 989,6 3,6 0,0
17.11.2017 15:00:00 0,4 0,1 9 5 14 8 NNE 989,3 2,8 0,1
17.11.2017 14:00:00 0,2 -0,1 5 3 7 4 N 989,5 5 0,2
17.11.2017 13:00:00 0,7 0,4 5 3 11 6 ENE 990,3 7 0,5
17.11.2017 12:00:00 0,7 0,4 5 3 14 8 E 990,9 4,5 0,6
17.11.2017 11:00:00 0,8 0,5 11 6 22 12 ESE 991,6 5 0,5
17.11.2017 10:00:00 0,8 0,4 16 9 32 18 SE 992,3 4,0 0,7
17.11.2017 09:00:00 1,1 0,7 24 13 36 19 SE 992,8 5 0,6
17.11.2017 08:00:00 0,8 0,5 22 12 40 21 SE 993,7 4,0 0,7
17.11.2017 07:00:00 1,5 1,2 29 16 40 21 SSE 994,4 6 1,0
17.11.2017 06:00:00 0,3 0,0 14 8 25 14 ESE 995,5 4,9 0,4
17.11.2017 05:00:00 0,2 0,1 18 10 25 14 ESE 996,9 2,7 0,9
17.11.2017 04:00:00 -2,3 -2,6 13 7 22 12 ENE 998,3 1,0 1,0
17.11.2017 03:00:00 -2,9 -3,3 13 7 22 12 NE 999,8 1,7 0,6
17.11.2017 02:00:00 -2,6 -3,0 9 5 18 10 NE 1001,0 6 0,1
17.11.2017 01:00:00 -3,8 -4,2 9 5 14 8 NE 1001,9 10 0,0
17.11.2017 00:00:00 -4,4 -4,9 4 2 11 6 - 1003,4 10 0,0
16.11.2017 23:00:00 -5,3 -5,8 2 1 7 4 - 1003,7 10 0,0
16.11.2017 22:00:00 -6,8 -7,5 0 0 7 4 N 1004,5 10 0,0
16.11.2017 21:00:00 -8,3 -9,0 5 3 14 8 NW 1005,3 10 0,0
16.11.2017 20:00:00 -8,6 -9,3 5 3 7 4 SSE 1005,6 10 0,0
16.11.2017 19:00:00 -9,2 -9,9 4 2 4 2 SSE 1005,5 10 0,0
16.11.2017 18:00:00 -7,7 -8,4 2 1 7 4 - 1005,9 10 0,0
16.11.2017 17:00:00 -6,1 -6,6 8 4 11 6 SW 1006,2 10 0,0
16.11.2017 16:00:00 -5,8 -6,3 8 4 11 6 S 1006,6 10 0,0
16.11.2017 15:00:00 -7,8 -8,5 4 2 7 4 SW 1006,6 10 0,0
16.11.2017 14:00:00 -4,9 -5,9 5 3 11 6 S 1006,7 10 0,0
16.11.2017 13:00:00 -4,8 -6,3 4 2 11 6 - 1006,8 10 0,0
16.11.2017 12:00:00 -6,4 -7,9 5 3 7 4 S 1006,9 10 0,0
16.11.2017 11:00:00 -6,3 -8,0 4 2 18 10 - 1006,9 10 0,0
16.11.2017 10:00:00 -7,7 -9,1 5 3 14 8 S 1006,9 10 0,0
16.11.2017 09:00:00 -11,5 -12,7 2 1 7 4 - 1006,8 10 0,0
16.11.2017 08:00:00 -11,9 -12,9 5 3 7 4 WNW 1006,7 10 0,0
16.11.2017 07:00:00 -12,3 -13,5 4 2 14 8 - 1006,2 10 0,0
16.11.2017 06:00:00 -11,0 -12,0 4 2 - - - - 10 -
16.11.2017 05:00:00 -10,5 -11,7 8 4 14 8 WNW 1006,2 10 0,0
16.11.2017 04:00:00 -11,5 -12,7 8 4 14 8 NNW 1005,5 10 0,0
16.11.2017 03:00:00 -10,9 -12,4 5 3 11 6 NNW 1004,9 10 0,0
16.11.2017 02:00:00 -10,6 -12,1 8 4 14 8 NNW 1004,3 10 0,0
16.11.2017 01:00:00 -10,9 -11,9 9 5 14 8 NNW 1003,5 10 0,0
16.11.2017 00:00:00 -10,7 -12,0 9 5 14 8 NNW 1003,2 10 0,0
15.11.2017 23:00:00 -11,5 -12,7 9 5 14 8 NNW 1002,5 10 0,0
15.11.2017 22:00:00 -11,3 -12,5 8 4 11 6 WNW 1002,1 10 0,0
15.11.2017 21:00:00 -12,3 -13,6 8 4 11 6 NW 1001,6 10 0,0
15.11.2017 20:00:00 -11,1 -12,1 2 1 7 4 - 1001,4 10 0,0
15.11.2017 19:00:00 -11,1 -12,1 5 3 11 6 NNW 1001,3 10 0,0
15.11.2017 18:00:00 -10,5 -11,5 5 3 11 6 NW 1001,1 10 0,0
15.11.2017 17:00:00 -9,9 -10,8 5 3 11 6 N 1001,0 10 0,0
15.11.2017 16:00:00 -9,7 -10,5 5 3 7 4 NNW 1001,1 10 0,0
15.11.2017 15:00:00 -9,9 -11,0 5 3 11 6 W 1001,0 10 0,0
15.11.2017 14:00:00 -8,4 -9,2 0 0 11 6 N 1001,0 10 0,0
15.11.2017 13:00:00 -7,8 -9,0 5 3 7 4 NW 1001,1 10 0,0
15.11.2017 12:00:00 -7,3 -8,4 2 1 7 4 SW 1001,4 10 0,0
15.11.2017 11:00:00 -9,0 -10,0 5 3 - - NNW - 10 -
15.11.2017 10:00:00 -9,2 -10,4 2 1 7 4 - 1001,5 10 0,0
15.11.2017 09:00:00 -11,2 -12,4 8 4 7 4 NW 1001,1 10 0,0
15.11.2017 08:00:00 -11,1 -12,1 4 2 7 4 - 1001,0 10 0,0
15.11.2017 07:00:00 -10,8 -11,8 4 2 7 4 - 1001,0 10 0,0
15.11.2017 06:00:00 -11,1 -12,1 0 0 4 2 N 1000,9 10 0,0
15.11.2017 05:00:00 -10,4 -11,4 2 1 4 2 - 1001,0 10 0,0
15.11.2017 04:00:00 -10,7 -11,7 2 1 4 2 - 1001,4 10 0,0
15.11.2017 03:00:00 -10,3 -11,3 0 0 7 4 N 1001,7 10 0,0
15.11.2017 02:00:00 -7,7 -8,6 8 4 11 6 WSW 1001,7 10 0,0
15.11.2017 01:00:00 -9,5 -10,4 0 0 7 4 N 1001,7 10 0,0
15.11.2017 00:00:00 -9,2 -10,0 5 3 7 4 NNW 1001,6 10 0,0
14.11.2017 23:00:00 -9,7 -10,8 2 1 4 2 - 1001,7 10 0,0
14.11.2017 22:00:00 -9,3 -10,1 0 0 4 2 N 1001,6 10 0,0
14.11.2017 21:00:00 -8,1 -8,8 2 1 7 4 - 1001,6 10 0,0
14.11.2017 20:00:00 -7,4 -8,1 2 1 7 4 - 1001,5 10 0,0
14.11.2017 19:00:00 -6,9 -7,4 2 1 7 4 WNW 1001,2 10 0,0
14.11.2017 18:00:00 -7,2 -7,9 2 1 4 2 - 1001,2 10 0,0
14.11.2017 17:00:00 -6,5 -6,9 4 2 7 4 WNW 1001,1 10 0,0
14.11.2017 16:00:00 -5,8 -6,3 4 2 7 4 WSW 1001,0 10 0,0
14.11.2017 15:00:00 -5,1 -5,5 5 3 7 4 WNW 1001,0 10 0,0
14.11.2017 14:00:00 -4,4 -4,9 0 0 7 4 N 1000,9 10 0,0
14.11.2017 13:00:00 -3,2 -5,1 4 2 7 4 W 1000,8 10 0,0
14.11.2017 12:00:00 -3,0 -4,6 4 2 7 4 WNW 1000,9 10 0,0
14.11.2017 11:00:00 -3,5 -4,6 5 3 7 4 WNW 1000,9 10 0,0
14.11.2017 10:00:00 -5,5 -6,5 5 3 7 4 NW 1000,8 10 0,0
14.11.2017 09:00:00 -4,3 -4,7 4 2 7 4 NW 1000,6 10 0,0
14.11.2017 08:00:00 -2,9 -3,3 8 4 7 4 NW 1000,7 10 0,0
14.11.2017 07:00:00 -2,2 -2,6 5 3 7 4 NNW 1000,4 10 0,0
14.11.2017 06:00:00 -2,6 -3,0 5 3 7 4 NW 1000,5 10 0,1
14.11.2017 05:00:00 -2,3 -2,7 8 4 7 4 WNW 1000,7 5 0,2
14.11.2017 04:00:00 -2,3 -2,9 5 3 7 4 NNW 1000,7 2,3 0,4
14.11.2017 03:00:00 -2,4 -3,2 5 3 11 6 W 1001,0 5 0,0
14.11.2017 02:00:00 -2,8 -3,8 5 3 11 6 WNW 1001,1 10 0,0
14.11.2017 01:00:00 -2,6 -3,9 5 3 11 6 NW 1001,2 10 0,0
14.11.2017 00:00:00 -2,4 -3,5 8 4 11 6 WNW 1001,3 10 0,0
13.11.2017 23:00:00 -2,5 -3,8 9 5 11 6 WNW 1001,5 10 0,0
13.11.2017 22:00:00 -2,6 -3,7 4 2 7 4 NW 1001,6 10 0,0
13.11.2017 21:00:00 -2,8 -3,8 5 3 11 6 NW 1001,6 10 0,0
13.11.2017 20:00:00 -2,4 -3,2 9 5 11 6 NW 1001,6 10 0,0

tt = Température de l'air
td = dewpoint
ff = Vitesse du vent
fx = gusts
dd = Direction du vent
ppp = reduced air pressure
vv = visibility
rr = Quantités de précipitations

stations d'obs. à proximité